This demonstration page uses our WeatherBlox Daily Observations layout. Learn more.

Left ArrowRight Arrow

Hourly Observations for January 29, 2022

Temp ( °F °C ) Dew Point ( °F °C ) Humidity (%) Winds ( mph kmh ) Pressure ( in mb ) Visibility ( mi km ) Precip ( " mm )
12:52 am 00:52 Partly Cloudy 23 -5 11 -11.7 60 60 S 12 19 30.19 1022 10 16 0.00 0.00
1:52 am 01:52 Mostly Cloudy 22 -5.6 12 -11.1 66 66 SSE 12 19 30.14 1021 10 16 0.00 0.00
2:52 am 02:52 Mostly Cloudy 20 -6.7 12 -11.1 71 71 SSE 9 15 30.14 1021 10 16 0.00 0.00
3:52 am 03:52 Clear 18 -7.8 11 -11.7 74 74 SSE 10 17 30.11 1020 10 16 0.00 0.00
4:52 am 04:52 Clear 18 -7.8 11 -11.7 74 74 SSE 9 15 30.09 1019 10 16 0.00 0.00
5:52 am 05:52 Mostly Clear 19 -7.2 13 -10.6 77 77 SSE 8 13 30.08 1019 10 16 0.00 0.00
6:52 am 06:52 Mostly Clear 18 -7.8 12 -11.1 77 77 SSE 7 11 30.07 1018 10 16 0.00 0.00
7:52 am 07:52 Partly Cloudy 17 -8.3 12 -11.1 80 80 SSE 6 9 30.07 1018 10 16 0.00 0.00
8:52 am 08:52 Mostly Cloudy 21 -6.1 15 -9.4 78 78 SSE 6 9 30.05 1018 10 16 0.00 0.00
9:52 am 09:52 Mostly Cloudy 26 -3.3 17 -8.3 69 69 SSE 3 6 30.05 1018 10 16 0.00 0.00
10:52 am 10:52 Partly Cloudy 31 -0.6 17 -8.3 56 56 SSE 3 6 30.03 1017 10 16 0.00 0.00
11:52 am 11:52 Partly Cloudy 36 2.2 18 -7.8 48 48 SSE 5 7 30.01 1016 10 16 0.00 0.00
12:52 pm 12:52 Mostly Sunny 43 6.1 19 -7.2 38 38 Calm 29.97 1015 10 16 0.00 0.00
1:52 pm 13:52 Mostly Sunny 49 9.4 20 -6.7 32 32 W 8 13 29.94 1014 10 16 0.00 0.00
2:52 pm 14:52 Mostly Sunny 54 12.2 20 -6.7 26 26 W 9 15 29.91 1013 10 16 0.00 0.00
3:52 pm 15:52 Mostly Sunny 55 12.8 18 -7.8 23 23 NW 14 22 29.91 1013 10 16 0.00 0.00
4:52 pm 16:52 Mostly Sunny 52 11.1 18 -7.8 26 26 WNW 6 9 29.92 1013 10 16 0.00 0.00
5:52 pm 17:52 Mostly Clear 42 5.6 19 -7.2 40 40 NW 6 9 29.94 1014 10 16 0.00 0.00
6:52 pm 18:52 Mostly Clear 46 7.8 18 -7.8 32 32 WNW 13 20 29.96 1015 10 16 0.00 0.00
7:52 pm 19:52 Clear 40 4.4 19 -7.2 43 43 NNW 5 7 29.98 1015 10 16 0.00 0.00
8:52 pm 20:52 Mostly Clear 35 1.7 19 -7.2 52 52 NNW 6 9 30.00 1016 10 16 0.00 0.00
9:52 pm 21:52 Mostly Clear 41 5 21 -6.1 45 45 NNW 14 22 30.00 1016 10 16 0.00 0.00
10:52 pm 22:52 Clear 35 1.7 21 -6.1 57 57 NNW 10 17 30.02 1017 10 16 0.00 0.00
11:52 pm 23:52 Clear 33 0.6 20 -6.7 58 58 N 12 19 30.03 1017 10 16 0.00 0.00

Powered by AerisWeather